Temperature
11 10 10 11 12 12 12 12 13 13 14 13 12 13 14 15 14 14 16 17 18 19 20 20 20 19 19 18 18 18 17 17 16 15 14 14 13 13 12 12 11 11 11 10
10 10 12 12 12 13 12 12 13 14 14 13 13 12 13 13 13 15 16 17 18 19 20 20 20 19 19 19 19 18 18 17 17 16 16 15 14 14 13 12 11 11 11 10
10 11 12 12 12 12 12 12 12 13 14 14 14 13 13 13 14 15 16 17 18 19 20 20 20 20 20 19 19 19 19 18 17 17 15 14 13 12 12 12 11 11 11 10
10 11 12 12 12 12 12 12 13 13 13 12 13 12 12 13 13 13 14 16 18 19 19 20 20 20 20 20 20 19 19 18 18 17 15 15 14 13 13 13 12 11 11 10
10 11 11 12 12 12 12 13 13 13 12 11 11 11 12 12 13 14 14 16 18 19 19 20 20 20 20 20 19 19 19 18 17 17 16 15 15 14 14 13 12 11 11 11
10 11 12 12 12 13 12 12 11 10 10 10 11 11 11 11 13 14 14 16 18 19 19 19 19 19 19 19 19 19 18 18 17 16 16 15 15 14 13 13 12 11 11 11
9 10 11 12 11 12 12 11 10 10 10 10 10 10 12 13 13 14 14 16 18 18 18 19 19 19 19 19 19 18 18 17 17 16 15 15 14 14 13 13 12 12 11 11
8 9 10 11 11 11 11 11 10 11 10 10 10 10 12 12 13 14 15 16 17 18 18 18 18 18 19 18 18 18 17 17 16 16 15 14 14 13 13 12 12 12 11 11
8 9 10 11 11 12 11 11 11 11 10 10 9 9 10 12 12 12 13 14 16 17 18 18 18 18 18 18 18 17 17 16 16 15 14 14 13 13 12 12 12 11 11 11
8 8 9 10 11 11 12 11 11 10 10 10 10 10 11 14 14 13 12 13 16 17 18 18 18 18 17 17 17 16 16 16 15 14 14 13 13 12 12 12 11 11 11 10
7 8 8 9 10 10 10 11 11 10 9 10 10 11 12 13 14 13 13 15 16 17 18 18 18 17 17 17 16 16 15 15 14 14 13 13 12 12 12 11 11 11 10 10
6 7 7 9 10 11 10 10 10 10 9 9 10 12 13 12 13 13 13 15 17 17 17 17 17 17 17 16 16 16 15 14 14 14 13 13 12 12 11 11 11 10 10 10
6 6 7 8 9 9 10 9 10 10 8 8 9 12 13 12 12 12 13 15 16 17 17 17 17 17 17 16 16 15 15 14 14 13 13 12 12 11 11 11 10 10 10 9
7 6 7 7 8 7 8 9 9 10 10 8 9 12 14 13 13 12 13 14 15 16 17 17 17 17 17 16 16 15 14 14 13 13 13 12 12 11 11 10 10 10 9 9
6 5 6 7 7 8 8 9 9 10 11 10 10 11 13 13 13 13 14 14 15 16 17 17 17 17 17 16 15 15 14 14 13 13 12 12 12 11 10 10 10 9 9 9
5 5 6 6 8 8 8 9 10 11 11 11 10 11 12 13 13 13 13 14 15 16 17 17 17 17 17 16 16 15 14 13 13 12 12 12 11 11 10 9 9 9 8 8
4 4 5 6 7 8 8 10 10 11 11 11 11 12 11 11 11 12 14 15 16 17 18 18 18 17 17 17 16 15 14 14 13 12 12 11 11 10 10 9 9 9 8 8
3 4 5 5 6 7 9 10 11 11 11 11 11 11 11 12 14 16 17 17 17 18 18 18 18 17 17 16 16 15 14 13 13 12 11 11 10 10 9 9 9 8 8 8
4 4 5 5 6 7 8 8 10 10 10 11 11 11 11 13 13 14 16 17 18 18 18 18 18 17 17 16 16 15 14 13 13 12 11 11 10 10 9 9 8 8 7 7
4 4 4 5 6 7 9 9 9 10 10 10 10 11 10 10 11 13 15 16 16 17 17 17 17 17 17 16 15 15 14 13 13 12 11 10 10 9 9 8 8 7 7 7
4 4 4 5 5 7 8 8 9 9 10 10 11 11 10 10 13 14 15 15 16 16 17 17 17 17 16 16 15 15 14 13 13 12 11 10 9 9 8 8 7 7 6 6
4 4 4 5 5 7 7 7 9 9 10 11 11 11 11 11 13 13 14 15 15 16 16 16 16 16 16 15 15 14 14 13 12 11 10 10 9 8 8 7 7 6 6 5
4 5 5 6 7 7 7 8 9 10 10 11 11 12 12 12 12 12 13 14 15 15 15 16 16 15 15 15 14 14 13 12 12 11 10 9 8 8 7 7 6 6 5 5
4 4 4 5 6 7 8 8 9 10 10 11 12 12 12 12 12 12 13 13 14 14 15 15 15 15 14 14 13 13 13 12 11 10 9 9 8 7 7 6 5 5 5 4
3 3 4 4 5 6 8 9 10 10 10 11 11 11 12 12 12 12 12 13 13 14 14 14 14 14 14 13 13 12 12 11 10 9 9 8 7 7 6 5 5 4 4 3
2 3 4 5 6 6 7 9 9 9 10 11 11 11 11 12 12 12 12 13 13 13 13 13 13 13 13 12 12 11 11 10 10 9 8 8 7 6 5 5 4 3 3 3
Wind_Speed
9 9 15 18 16 9 8 8 8 7 5 8 11 13 14 11 8 10 11 11 12 14 14 11 12 12 12 13 15 18 19 17 15 14 13 12 12 10 9 9 14 16 16 16
8 18 17 12 12 10 9 9 8 5 4 7 8 11 12 11 10 11 13 14 14 12 10 10 10 11 14 16 18 18 19 19 18 16 14 10 8 7 8 7 11 15 16 16
19 11 12 13 12 14 12 12 10 6 1 2 4 9 9 9 8 9 10 11 11 13 14 11 10 11 12 15 18 18 20 19 19 15 10 7 5 4 6 8 9 11 15 16
17 11 13 15 15 15 16 11 9 7 4 5 3 7 9 7 8 9 11 10 11 12 11 9 9 10 12 15 14 15 17 17 17 16 15 16 12 11 12 9 9 9 13 14
13 14 16 19 18 16 9 9 9 7 6 5 4 5 9 5 9 11 11 12 12 11 10 10 9 10 10 11 11 12 14 15 15 17 18 18 13 10 7 6 9 10 9 11
11 8 13 13 10 12 7 6 4 2 3 9 12 8 9 7 10 8 9 10 10 9 8 7 6 6 6 7 9 10 13 14 15 17 17 17 15 12 11 9 10 9 7 7
12 10 8 8 10 9 10 8 5 5 7 10 8 9 11 10 10 10 10 10 10 8 6 6 6 6 7 8 10 11 13 13 14 16 16 16 15 15 14 12 12 10 8 7
13 13 13 10 11 11 15 14 10 8 8 5 6 10 10 9 8 9 10 8 8 7 7 7 8 7 7 9 10 11 13 12 14 15 15 13 13 11 10 11 10 11 10 10
10 10 8 10 8 13 13 13 8 5 3 3 6 7 10 7 8 8 8 8 9 8 8 7 7 7 7 8 9 10 12 11 13 13 12 11 12 11 10 10 9 9 7 7
4 6 7 9 6 8 11 11 7 7 8 7 6 6 7 7 11 10 10 10 10 8 7 7 6 6 6 6 6 7 9 10 10 11 11 10 11 11 10 9 10 9 8 8
2 5 4 8 13 15 9 11 8 8 6 7 5 8 9 11 11 12 13 11 10 9 8 7 6 5 6 6 7 7 8 8 8 10 10 10 9 9 9 9 10 9 8 9
2 2 5 9 7 11 9 12 11 11 8 6 5 8 6 9 8 9 10 9 8 8 6 6 6 6 6 7 7 8 8 9 9 9 9 9 9 9 9 9 9 9 9 9
2 2 3 3 4 6 8 10 11 8 5 6 6 8 3 4 6 7 8 8 7 7 6 5 6 6 7 7 7 8 8 8 8 9 9 9 9 9 9 8 8 8 8 8
4 4 7 9 6 6 9 12 12 9 9 9 11 9 4 5 6 6 6 7 6 6 7 7 6 6 7 7 7 8 8 8 9 9 9 9 9 9 9 8 8 8 8 8
3 5 6 8 7 7 9 15 17 16 15 13 15 13 11 8 8 7 6 6 6 6 7 9 8 8 7 7 7 7 8 8 9 9 9 9 8 8 8 7 7 7 7 7
3 5 5 8 7 7 9 14 20 22 19 16 12 14 10 8 4 4 6 8 8 9 10 10 9 9 9 9 9 8 9 9 9 9 9 8 8 8 8 7 7 7 6 6
4 4 4 6 5 4 11 18 23 19 17 17 20 16 6 8 11 12 11 10 11 12 11 11 11 11 11 10 10 10 10 9 9 9 8 8 9 8 8 8 8 7 7 6
8 7 4 3 3 11 10 8 13 16 17 15 13 9 12 13 13 11 11 12 12 12 11 11 10 10 9 9 9 9 9 10 10 9 9 9 9 9 8 8 7 7 5 6
13 9 5 4 6 8 8 6 12 14 16 14 15 10 9 7 5 7 8 10 13 13 11 11 10 9 9 10 11 11 10 10 10 10 9 9 10 9 9 8 7 5 6 5
12 11 6 5 5 8 8 4 5 8 12 9 13 14 10 7 9 12 8 9 10 9 8 8 7 8 10 10 12 13 12 11 11 10 9 9 9 10 9 8 7 5 5 6
9 9 12 8 7 9 7 2 7 9 8 5 12 14 12 13 16 11 7 9 10 9 8 8 9 10 10 12 13 13 11 11 9 9 9 9 8 9 8 7 6 7 7 7
8 8 10 8 8 10 2 5 8 6 3 3 6 9 11 13 12 7 8 9 8 7 7 9 10 9 9 12 14 13 11 9 10 11 10 9 9 8 8 9 7 7 8 7
8 8 5 8 9 4 3 6 6 3 3 4 4 6 8 9 9 8 8 8 8 8 9 8 10 10 9 10 12 14 11 12 12 12 11 10 9 8 8 9 9 7 6 6
5 3 4 6 9 8 8 8 6 5 5 6 5 5 5 7 8 8 7 7 7 7 8 9 12 13 10 9 9 11 13 13 14 13 11 10 10 9 7 6 6 6 6 5
7 4 5 9 9 9 10 8 7 6 6 6 6 5 5 6 6 7 7 7 7 7 7 10 13 13 12 11 11 12 13 15 14 13 11 10 9 9 8 6 5 5 4 5
9 9 9 10 8 7 10 9 8 8 9 8 6 6 5 5 6 6 6 7 7 9 9 10 11 13 13 13 13 12 12 14 16 13 10 8 8 8 8 8 7 8 7 8
Wind_Direction
185 188 205 204 203 200 182 183 207 222 210 185 223 243 253 254 233 240 244 241 237 235 239 228 215 207 199 194 192 193 194 191 185 187 190 192 198 196 195 196 195 193 191 187
200 218 213 195 195 199 199 207 220 242 208 199 240 256 256 249 235 228 233 237 236 238 244 231 214 201 199 198 197 195 195 191 189 193 193 193 186 189 192 189 193 194 191 187
212 219 194 192 197 201 210 208 210 215 251 241 281 285 262 259 237 239 234 234 234 230 234 232 216 206 201 201 199 198 196 192 192 186 175 157 147 142 175 192 196 195 192 189
218 218 192 198 205 196 222 207 195 202 210 253 216 272 272 255 263 248 241 236 235 233 229 227 217 206 203 205 200 197 193 191 187 179 179 179 187 192 195 191 192 188 190 190
213 197 195 205 207 195 207 180 185 199 207 253 235 244 272 255 253 249 239 235 235 230 223 223 216 208 202 197 192 190 186 186 182 183 185 187 193 192 173 166 177 186 189 190
230 213 200 202 195 186 149 118 113 122 177 243 226 215 266 228 223 238 233 231 232 226 215 214 207 188 186 180 180 179 180 184 181 184 186 190 189 177 168 174 182 187 186 188
222 231 218 181 166 174 164 149 170 193 212 236 198 208 246 233 222 224 230 232 231 221 208 207 200 191 184 176 177 177 178 182 182 184 188 192 190 183 183 183 185 184 183 190
200 216 204 191 186 180 188 177 185 191 202 229 182 221 247 240 238 236 235 230 221 216 210 210 205 195 186 178 175 175 178 180 181 185 189 188 184 185 189 185 184 188 192 194
201 217 190 196 180 166 177 196 184 161 165 196 228 259 288 254 244 234 229 221 220 219 214 210 200 188 181 176 177 177 176 176 180 184 182 181 181 183 184 182 181 185 185 181
192 215 208 184 159 190 177 164 161 180 178 217 244 239 234 226 220 216 217 219 220 214 206 200 190 182 176 172 168 166 170 176 176 178 180 182 183 183 179 176 180 182 178 173
228 203 199 179 189 184 166 176 175 178 192 181 219 249 219 210 204 206 215 214 208 205 201 193 184 173 163 156 158 162 164 163 168 174 176 174 177 176 172 176 181 178 173 172
253 219 216 213 215 185 179 178 172 187 204 193 194 257 243 216 219 210 216 212 205 200 190 182 174 162 162 165 166 167 167 168 171 170 169 172 170 168 171 176 176 171 172 176
229 218 205 202 197 183 194 187 189 180 153 172 190 251 264 202 221 219 213 207 199 191 181 175 173 177 178 176 173 172 171 170 165 163 164 165 167 170 174 174 169 168 169 170
217 221 218 216 222 200 208 204 194 182 199 206 216 227 238 208 212 215 205 196 190 188 183 183 190 192 186 181 177 175 174 167 161 160 163 168 173 173 172 166 163 165 164 165
201 234 247 259 249 216 225 210 201 206 208 210 220 219 226 220 211 209 192 176 174 187 194 197 198 194 186 181 178 174 170 166 162 162 167 172 167 161 156 155 156 154 156 161
205 227 251 261 241 229 239 217 209 213 214 222 224 231 227 229 203 198 189 183 194 206 209 205 199 192 190 187 180 172 170 166 161 165 168 159 153 152 153 151 147 145 145 144
215 210 219 244 258 261 238 215 208 213 215 210 223 228 189 205 210 215 210 201 206 212 210 204 201 197 193 187 177 174 168 158 159 161 157 154 152 150 151 146 143 147 149 144
215 213 214 229 218 224 234 217 207 216 225 218 222 208 192 210 217 216 204 200 211 214 212 209 204 197 185 170 162 154 150 155 157 157 155 154 151 149 145 143 146 145 143 147
209 207 208 200 226 256 273 227 199 205 230 222 226 224 211 213 218 248 223 208 211 211 208 206 197 183 166 161 155 147 150 153 156 160 160 158 154 149 147 149 148 142 139 137
197 203 209 200 216 235 245 233 197 184 241 226 219 224 212 167 216 241 224 213 222 216 202 190 165 153 157 158 149 149 155 158 166 164 158 152 150 150 152 150 141 133 132 131
186 198 211 213 228 256 265 248 138 178 240 245 215 219 204 203 227 241 204 205 209 206 192 172 159 161 164 154 150 152 157 167 159 143 138 138 140 141 139 130 125 126 120 116
198 197 203 204 219 240 239 136 174 229 273 265 223 220 215 225 236 229 203 202 192 182 170 161 158 159 153 153 152 153 159 148 134 133 131 131 129 127 127 122 118 118 121 117
213 206 201 212 228 262 213 223 242 236 267 269 257 251 232 233 231 221 213 200 187 178 169 158 153 148 147 156 154 152 148 139 134 129 128 126 119 115 123 127 127 121 119 122
252 221 214 248 254 264 271 271 270 271 274 276 274 265 229 230 223 212 201 189 178 170 163 152 146 148 151 151 142 139 140 137 133 131 129 127 123 116 110 112 123 127 131 129
241 238 234 251 266 274 262 251 265 282 293 302 301 277 245 229 223 202 193 185 177 165 156 155 156 154 149 140 133 135 138 135 130 129 129 125 123 124 116 106 108 121 135 148
223 221 229 246 245 249 265 269 267 271 274 272 277 287 277 230 213 196 187 176 165 157 152 147 143 142 141 138 135 138 139 137 134 134 133 131 129 125 123 117 97 84 101 107
Height
1441 1446 1445 1445 1449 1452 1456 1460 1461 1459 1455 1459 1460 1458 1452 1449 1452 1451 1451 1451 1452 1453 1456 1459 1462 1465 1468 1471 1475 1478 1482 1487 1491 1495 1499 1502 1506 1510 1514 1517 1521 1524 1527 1529
1440 1437 1435 1440 1445 1449 1453 1457 1458 1456 1453 1456 1458 1455 1448 1445 1444 1443 1444 1444 1445 1447 1449 1452 1455 1458 1460 1464 1467 1471 1475 1480 1484 1488 1493 1497 1502 1505 1509 1513 1517 1520 1523 1526
1429 1427 1431 1437 1442 1446 1449 1452 1454 1455 1453 1453 1455 1453 1446 1438 1437 1436 1436 1436 1437 1439 1441 1444 1448 1450 1453 1457 1460 1464 1469 1473 1478 1483 1488 1493 1497 1501 1505 1508 1511 1515 1519 1522
1424 1423 1427 1431 1435 1440 1444 1444 1448 1452 1457 1461 1458 1463 1446 1437 1434 1431 1430 1430 1430 1432 1435 1438 1441 1444 1447 1450 1455 1458 1463 1467 1471 1476 1481 1485 1489 1493 1497 1502 1506 1510 1514 1517
1416 1417 1421 1424 1426 1432 1436 1439 1446 1450 1456 1461 1459 1462 1446 1436 1433 1426 1423 1423 1424 1426 1429 1431 1434 1437 1441 1444 1448 1452 1456 1461 1465 1470 1474 1479 1484 1488 1493 1497 1502 1506 1510 1513
1412 1412 1414 1416 1421 1426 1433 1441 1447 1453 1458 1463 1455 1460 1446 1435 1425 1419 1417 1417 1419 1421 1424 1426 1429 1432 1435 1438 1442 1446 1450 1455 1459 1464 1469 1473 1478 1483 1488 1492 1496 1501 1504 1508
1411 1410 1410 1411 1419 1425 1430 1442 1454 1458 1460 1455 1447 1450 1434 1419 1415 1413 1412 1413 1414 1417 1419 1422 1424 1427 1430 1433 1437 1441 1445 1450 1454 1459 1463 1468 1473 1478 1482 1487 1491 1495 1499 1502
1408 1408 1405 1406 1409 1417 1423 1431 1441 1447 1451 1449 1447 1443 1423 1410 1407 1407 1407 1409 1410 1412 1415 1418 1420 1423 1426 1429 1433 1437 1441 1445 1450 1454 1459 1464 1468 1473 1478 1483 1487 1490 1494 1498
1403 1401 1397 1398 1400 1408 1418 1423 1426 1436 1442 1445 1442 1434 1419 1405 1404 1403 1404 1405 1406 1408 1411 1414 1416 1419 1422 1426 1430 1433 1437 1441 1445 1450 1454 1459 1464 1468 1473 1478 1482 1486 1490 1494
1400 1402 1396 1395 1398 1402 1406 1414 1425 1433 1438 1438 1433 1429 1417 1402 1400 1400 1400 1400 1401 1405 1408 1410 1413 1416 1420 1424 1427 1431 1435 1438 1442 1446 1451 1455 1459 1464 1469 1473 1477 1482 1485 1489
1399 1400 1397 1394 1392 1397 1405 1412 1414 1424 1428 1430 1432 1419 1397 1392 1391 1393 1394 1394 1397 1401 1405 1408 1411 1415 1418 1422 1425 1428 1432 1435 1439 1443 1447 1451 1456 1460 1465 1469 1473 1477 1481 1484
1400 1398 1397 1392 1387 1388 1394 1400 1407 1414 1423 1422 1421 1410 1385 1386 1386 1388 1389 1392 1395 1399 1403 1406 1410 1413 1416 1419 1423 1426 1429 1433 1436 1440 1444 1448 1452 1456 1460 1465 1469 1473 1476 1480
1401 1401 1398 1394 1394 1392 1392 1395 1398 1404 1415 1422 1418 1405 1383 1384 1384 1385 1387 1390 1393 1397 1400 1404 1408 1411 1414 1417 1420 1423 1427 1430 1434 1437 1441 1445 1448 1452 1456 1461 1465 1468 1472 1475
1398 1398 1396 1391 1388 1391 1391 1392 1394 1399 1404 1411 1406 1394 1385 1383 1383 1383 1385 1388 1391 1394 1398 1402 1405 1409 1412 1415 1418 1421 1424 1428 1431 1435 1438 1442 1445 1449 1453 1457 1461 1464 1467 1470
1396 1395 1392 1388 1386 1386 1385 1384 1387 1388 1388 1393 1390 1390 1383 1380 1380 1381 1383 1386 1389 1392 1396 1399 1402 1406 1409 1413 1416 1419 1422 1425 1429 1432 1435 1439 1443 1446 1450 1453 1457 1460 1463 1466
1394 1394 1391 1386 1381 1380 1379 1376 1377 1377 1379 1382 1383 1382 1376 1376 1378 1380 1381 1384 1386 1389 1392 1396 1400 1403 1406 1410 1413 1416 1419 1422 1426 1429 1433 1436 1440 1443 1447 1450 1454 1457 1460 1463
1394 1393 1391 1386 1380 1378 1375 1364 1365 1367 1366 1370 1372 1368 1374 1375 1375 1375 1377 1380 1382 1385 1389 1392 1396 1399 1403 1407 1410 1413 1417 1420 1423 1427 1430 1434 1437 1440 1444 1447 1451 1453 1456 1459
1390 1390 1389 1386 1383 1378 1360 1353 1355 1359 1359 1360 1360 1361 1365 1366 1367 1369 1372 1375 1378 1381 1385 1388 1392 1396 1400 1404 1407 1411 1414 1417 1421 1424 1428 1431 1434 1438 1441 1444 1447 1450 1453 1455
1382 1385 1384 1383 1378 1368 1356 1351 1350 1354 1353 1353 1355 1358 1360 1361 1364 1364 1367 1370 1373 1377 1380 1384 1388 1392 1396 1400 1403 1407 1411 1414 1418 1421 1425 1428 1432 1435 1438 1441 1444 1447 1450 1452
1374 1379 1381 1379 1374 1363 1347 1343 1342 1349 1351 1346 1349 1352 1356 1360 1365 1357 1360 1365 1368 1372 1375 1379 1383 1387 1391 1395 1399 1403 1407 1411 1415 1419 1422 1426 1430 1433 1436 1439 1442 1445 1447 1449
1371 1374 1374 1373 1368 1356 1344 1340 1340 1352 1345 1339 1340 1343 1348 1351 1349 1350 1355 1358 1362 1365 1370 1374 1378 1382 1386 1391 1395 1399 1404 1408 1412 1416 1420 1424 1428 1431 1434 1437 1440 1442 1444 1446
1363 1364 1366 1366 1364 1353 1340 1340 1341 1339 1336 1335 1335 1337 1339 1340 1342 1345 1348 1351 1355 1358 1363 1368 1372 1377 1382 1387 1391 1396 1400 1405 1410 1414 1418 1422 1425 1429 1432 1435 1437 1439 1442 1444
1356 1354 1353 1351 1344 1336 1334 1335 1334 1334 1334 1333 1332 1332 1334 1335 1336 1338 1341 1344 1348 1352 1357 1362 1367 1372 1378 1383 1388 1392 1398 1402 1407 1411 1415 1419 1423 1427 1430 1432 1435 1437 1439 1441
1351 1349 1349 1346 1338 1334 1332 1331 1331 1331 1331 1330 1330 1330 1330 1330 1330 1332 1335 1338 1342 1346 1351 1357 1362 1367 1373 1379 1385 1390 1395 1400 1404 1409 1413 1417 1421 1424 1427 1430 1433 1435 1437 1438
1348 1346 1344 1340 1334 1331 1326 1327 1327 1328 1327 1327 1326 1326 1326 1326 1326 1327 1330 1333 1337 1342 1347 1352 1358 1364 1370 1376 1382 1387 1392 1397 1402 1407 1411 1415 1419 1422 1425 1428 1431 1433 1435 1436
1340 1341 1339 1332 1328 1329 1323 1322 1324 1324 1323 1323 1323 1322 1322 1322 1322 1324 1326 1330 1334 1338 1343 1349 1355 1361 1367 1373 1379 1385 1391 1396 1400 1404 1409 1413 1417 1420 1423 1426 1428 1430 1432 1433